,,Stat5,,Stat1,,Stat2,,Stat3,,Stat4,,Wind1,,Wind1,
time,status,PA1M_AVG,status,PR1M_SUM,status,RH1M_AVG,status,SR1M_AVG,status,TA1M_AVG,status,W1dAve1m,status,W1sAve1m,
2003-08-16, 00:00:01,VALID,917.039,VALID,0,VALID,100,VALID,-0.0169808,VALID,19.4732,VALID,14,VALID,0.799479,
2003-08-16, 00:01:01,VALID,917.041,VALID,0,VALID,100,VALID,-0.0169808,VALID,19.4702,VALID,14,VALID,1.02618,
2003-08-16, 00:02:01,VALID,917.036,VALID,0,VALID,100,VALID,-0.0169808,VALID,19.464,VALID,12,VALID,0.733742,
2003-08-16, 00:03:00,VALID,917.045,VALID,0,VALID,100,VALID,-0.0339617,VALID,19.454,VALID,9,VALID,0.797903,
2003-08-16, 00:04:00,VALID,917.039,VALID,0,VALID,100,VALID,-0.0169808,VALID,19.4414,VALID,10,VALID,0.384252,
2003-08-16, 00:05:00,VALID,917.042,VALID,0,VALID,100,VALID,-0.0339617,VALID,19.4476,VALID,11,VALID,0.128289,
2003-08-16, 00:06:00,VALID,917.053,VALID,0,VALID,100,VALID,0,VALID,19.4468,VALID,12,VALID,0.268914,
2003-08-16, 00:07:00,VALID,917.044,VALID,0,VALID,100,VALID,-0.0169808,VALID,19.4374,VALID,13,VALID,0.323438,
2003-08-16, 00:08:00,VALID,917.054,VALID,0,VALID,100,VALID,-0.0169808,VALID,19.4081,VALID,13,VALID,0.183183,
2003-08-16, 00:09:00,VALID,917.062,VALID,0,VALID,100,VALID,-0.0169808,VALID,19.412,VALID,13,VALID,0,
2003-08-16, 00:10:01,VALID,917.073,VALID,0,VALID,100,VALID,0,VALID,19.4086,VALID,13,VALID,0,
2003-08-16, 00:11:01,VALID,917.081,VALID,0,VALID,100,VALID,-0.0169808,VALID,19.4086,VALID,13,VALID,0.0010016,
2003-08-16, 00:12:00,VALID,917.073,VALID,0,VALID,100,VALID,0,VALID,19.422,VALID,13,VALID,0.262669,
2003-08-16, 00:13:00,VALID,917.09,VALID,0,VALID,100,VALID,0.0169808,VALID,19.4277,VALID,13,VALID,0.351367,
2003-08-16, 00:14:00,VALID,917.104,VALID,0,VALID,100,VALID,0,VALID,19.4275,VALID,27,VALID,0.392628,
2003-08-16, 00:15:00,VALID,917.106,VALID,0,VALID,100,VALID,-0.0169808,VALID,19.4145,VALID,51,VALID,0.405649,
2003-08-16, 00:16:00,VALID,917.115,VALID,0,VALID,100,VALID,0,VALID,19.3986,VALID,52,VALID,0.435238,
2003-08-16, 00:17:01,VALID,917.135,VALID,0,VALID,100,VALID,0,VALID,19.3954,VALID,52,VALID,0.422676,
2003-08-16, 00:18:01,VALID,917.124,VALID,0,VALID,100,VALID,0,VALID,19.385,VALID,53,VALID,0.320513,
2003-08-16, 00:19:00,VALID,917.139,VALID,0,VALID,100,VALID,0,VALID,19.4021,VALID,53,VALID,0.289274,
2003-08-16, 00:20:00,VALID,917.14,VALID,0,VALID,100,VALID,0,VALID,19.4083,VALID,53,VALID,0.151182,
2003-08-16, 00:21:00,VALID,917.144,VALID,0,VALID,100,VALID,0,VALID,19.418,VALID,53,VALID,0.306445,
2003-08-16, 00:22:00,VALID,917.143,VALID,0,VALID,100,VALID,0.0169808,VALID,19.418,VALID,53,VALID,0.358803,
2003-08-16, 00:23:00,VALID,917.137,VALID,0,VALID,100,VALID,0.0169808,VALID,19.4019,VALID,53,VALID,0.361698,
2003-08-16, 00:24:00,VALID,917.123,VALID,0,VALID,100,VALID,0,VALID,19.3855,VALID,55,VALID,0.288218,
2003-08-16, 00:25:01,VALID,917.127,VALID,0,VALID,100,VALID,-0.0169808,VALID,19.376,VALID,60,VALID,0.203125,
2003-08-16, 00:26:00,VALID,917.13,VALID,0,VALID,100,VALID,0,VALID,19.382,VALID,60,VALID,0.0951522,
2003-08-16, 00:27:00,VALID,917.124,VALID,0,VALID,100,VALID,-0.0169808,VALID,19.3954,VALID,60,VALID,0.0714614,
2003-08-16, 00:28:01,VALID,917.147,VALID,0,VALID,100,VALID,0,VALID,19.418,VALID,60,VALID,0.0314611,
2003-08-16, 00:29:00,VALID,917.134,VALID,0,VALID,100,VALID,-0.0169808,VALID,19.4369,VALID,60,VALID,0,
2003-08-16, 00:30:01,VALID,917.126,VALID,0,VALID,100,VALID,0,VALID,19.4694,VALID,60,VALID,0,
2003-08-16, 00:31:00,VALID,917.12,VALID,0,VALID,100,VALID,0,VALID,19.4923,VALID,60,VALID,0,
2003-08-16, 00:32:00,VALID,917.11,VALID,0,VALID,100,VALID,0,VALID,19.4886,VALID,60,VALID,0,
2003-08-16, 00:33:00,VALID,917.106,VALID,0,VALID,100,VALID,0,VALID,19.495,VALID,60,VALID,0,
2003-08-16, 00:34:00,VALID,917.083,VALID,0,VALID,100,VALID,0,VALID,19.4824,VALID,60,VALID,0,
2003-08-16, 00:35:00,VALID,917.085,VALID,0,VALID,100,VALID,0,VALID,19.4595,VALID,60,VALID,0,
2003-08-16, 00:36:01,VALID,917.068,VALID,0,VALID,100,VALID,0.0169808,VALID,19.4466,VALID,60,VALID,0,
2003-08-16, 00:37:00,VALID,917.059,VALID,0,VALID,100,VALID,0.0169808,VALID,19.4468,VALID,60,VALID,0.128084,
2003-08-16, 00:38:00,VALID,917.046,VALID,0,VALID,100,VALID,-0.101885,VALID,19.4262,VALID,60,VALID,0.323396,
2003-08-16, 00:39:00,VALID,917.031,VALID,0,VALID,100,VALID,-0.152827,VALID,19.4297,VALID,60,VALID,0.360609,
2003-08-16, 00:40:00,VALID,917.016,VALID,0,VALID,100,VALID,-0.135847,VALID,19.4719,VALID,60,VALID,0.483173,
2003-08-16, 00:41:01,VALID,917.014,VALID,0,VALID,100,VALID,-0.169808,VALID,19.4913,VALID,60,VALID,0.722451,
2003-08-16, 00:42:00,VALID,917.003,VALID,0,VALID,100,VALID,-0.152827,VALID,19.4913,VALID,60,VALID,0.700863,
2003-08-16, 00:43:01,VALID,917.003,VALID,0,VALID,100,VALID,-0.152827,VALID,19.4816,VALID,60,VALID,0.719899,
2003-08-16, 00:44:01,VALID,917.004,VALID,0,VALID,100,VALID,-0.152827,VALID,19.4851,VALID,61,VALID,0.779561,
2003-08-16, 00:45:00,VALID,917.008,VALID,0,VALID,100,VALID,-0.152827,VALID,19.4592,VALID,61,VALID,0.642233,
2003-08-16, 00:46:00,VALID,916.999,VALID,0,VALID,100,VALID,-0.135847,VALID,19.4657,VALID,57,VALID,0.568834,
2003-08-16, 00:47:00,VALID,916.991,VALID,0,VALID,100,VALID,-0.101885,VALID,19.4585,VALID,57,VALID,0.388822,
2003-08-16, 00:48:01,VALID,916.986,VALID,0,VALID,100,VALID,-0.169808,VALID,19.4587,VALID,57,VALID,0.291741,
2003-08-16, 00:49:00,VALID,916.964,VALID,0,VALID,100,VALID,-0.118866,VALID,19.4654,VALID,57,VALID,0.161801,
2003-08-16, 00:50:00,VALID,916.956,VALID,0,VALID,100,VALID,-0.118866,VALID,19.4684,VALID,56,VALID,0.0390625,
2003-08-16, 00:51:00,VALID,916.946,VALID,0,VALID,100,VALID,-0.101885,VALID,19.4776,VALID,57,VALID,0,
2003-08-16, 00:52:01,VALID,916.932,VALID,0,VALID,100,VALID,-0.135847,VALID,19.4972,VALID,57,VALID,0,
2003-08-16, 00:53:01,VALID,916.912,VALID,0,VALID,100,VALID,0,VALID,19.4866,VALID,57,VALID,0,
2003-08-16, 00:54:00,VALID,916.913,VALID,0,VALID,100,VALID,-0.0169808,VALID,19.4836,VALID,57,VALID,0.0376234,
2003-08-16, 00:55:00,VALID,916.902,VALID,0,VALID,100,VALID,-0.0339617,VALID,19.4861,VALID,56,VALID,0.214844,
2003-08-16, 00:56:01,VALID,916.897,VALID,0,VALID,100,VALID,-0.0169808,VALID,19.493,VALID,357,VALID,0.19109,
2003-08-16, 00:57:01,VALID,916.875,VALID,0,VALID,100,VALID,-0.0509425,VALID,19.5027,VALID,351,VALID,0.0984786,
2003-08-16, 00:58:00,VALID,916.849,VALID,0,VALID,100,VALID,-0.0339617,VALID,19.5025,VALID,351,VALID,0.166324,
2003-08-16, 00:59:00,VALID,916.832,VALID,0,VALID,100,VALID,-0.0339617,VALID,19.493,VALID,351,VALID,0.151727,
2003-08-16, 01:00:00,VALID,916.811,VALID,0,VALID,100,VALID,-0.0339617,VALID,19.4799,VALID,351,VALID,0.0542763,
2003-08-16, 01:01:00,VALID,916.784,VALID,0,VALID,100,VALID,-0.0169808,VALID,19.4637,VALID,351,VALID,0.0366071,
2003-08-16, 01:02:01,VALID,916.756,VALID,0,VALID,100,VALID,-0.0679233,VALID,19.4548,VALID,351,VALID,0.0721628,
2003-08-16, 01:03:01,VALID,916.744,VALID,0,VALID,100,VALID,-0.0849042,VALID,19.4416,VALID,344,VALID,0.128571,
2003-08-16, 01:04:01,VALID,916.719,VALID,0,VALID,100,VALID,-0.0679233,VALID,19.4418,VALID,342,VALID,0.205448,
2003-08-16, 01:05:01,VALID,916.706,VALID,0,VALID,100,VALID,-0.0679233,VALID,19.4277,VALID,342,VALID,0.154848,
2003-08-16, 01:06:00,VALID,916.683,VALID,0,VALID,100,VALID,-0.0849042,VALID,19.4416,VALID,342,VALID,0.0464527,
2003-08-16, 01:07:00,VALID,916.655,VALID,0,VALID,100,VALID,-0.0509425,VALID,19.4324,VALID,342,VALID,0,
2003-08-16, 01:08:00,VALID,916.633,VALID,0,VALID,100,VALID,0.0169808,VALID,19.4173,VALID,342,VALID,0,
2003-08-16, 01:09:00,VALID,916.632,VALID,0,VALID,100,VALID,0.0169808,VALID,19.4081,VALID,338,VALID,0.0985577,
2003-08-16, 01:10:00,VALID,916.61,VALID,0,VALID,100,VALID,0,VALID,19.3952,VALID,265,VALID,0.304071,
2003-08-16, 01:11:01,VALID,916.59,VALID,0,VALID,100,VALID,0.0509425,VALID,19.4081,VALID,265,VALID,0.329928,
2003-08-16, 01:12:01,VALID,916.569,VALID,0,VALID,100,VALID,0.0169808,VALID,19.3917,VALID,265,VALID,0.274439,
2003-08-16, 01:13:00,VALID,916.569,VALID,0,VALID,100,VALID,0.0339617,VALID,19.3957,VALID,264,VALID,0.161106,
2003-08-16, 01:14:01,VALID,916.555,VALID,0,VALID,100,VALID,0.0339617,VALID,19.4016,VALID,264,VALID,0,
2003-08-16, 01:15:01,VALID,916.537,VALID,0,VALID,100,VALID,0,VALID,19.4277,VALID,264,VALID,0,
2003-08-16, 01:16:01,VALID,916.528,VALID,0,VALID,100,VALID,0,VALID,19.421,VALID,264,VALID,0,
2003-08-16, 01:17:01,VALID,916.524,VALID,0,VALID,100,VALID,0.0339617,VALID,19.4178,VALID,264,VALID,0,
2003-08-16, 01:18:01,VALID,916.496,VALID,0,VALID,100,VALID,0.0169808,VALID,19.4439,VALID,264,VALID,0,
2003-08-16, 01:19:01,VALID,916.471,VALID,0,VALID,100,VALID,0.0679233,VALID,19.4498,VALID,264,VALID,0,
2003-08-16, 01:20:01,VALID,916.469,VALID,0,VALID,100,VALID,0.0339617,VALID,19.4436,VALID,264,VALID,0,
2003-08-16, 01:21:01,VALID,916.45,VALID,0,VALID,100,VALID,0.0169808,VALID,19.4535,VALID,264,VALID,0.0399816,
2003-08-16, 01:22:01,VALID,916.437,VALID,0,VALID,100,VALID,0.0339617,VALID,19.4528,VALID,264,VALID,0.0160473,
2003-08-16, 01:23:01,VALID,916.437,VALID,0,VALID,100,VALID,0.0169808,VALID,19.4501,VALID,264,VALID,0,
2003-08-16, 01:24:01,VALID,916.416,VALID,0,VALID,100,VALID,0.0339617,VALID,19.4528,VALID,264,VALID,0,
2003-08-16, 01:25:01,VALID,916.407,VALID,0,VALID,100,VALID,0.0509425,VALID,19.4501,VALID,263,VALID,0.0015625,
2003-08-16, 01:26:01,VALID,916.399,VALID,0,VALID,100,VALID,0.0339617,VALID,19.4145,VALID,262,VALID,0.24301,
2003-08-16, 01:27:01,VALID,916.409,VALID,0,VALID,100,VALID,0.0339617,VALID,19.388,VALID,262,VALID,0,
2003-08-16, 01:28:01,VALID,916.401,VALID,0,VALID,100,VALID,0.0339617,VALID,19.3882,VALID,262,VALID,0,
2003-08-16, 01:29:01,VALID,916.395,VALID,0,VALID,100,VALID,0.0169808,VALID,19.3952,VALID,262,VALID,0.00957031,
2003-08-16, 01:30:01,VALID,916.391,VALID,0,VALID,100,VALID,0.0339617,VALID,19.4044,VALID,262,VALID,0.0335938,
2003-08-16, 01:31:01,VALID,916.392,VALID,0,VALID,100,VALID,0.0169808,VALID,19.4337,VALID,262,VALID,0.0448191,
2003-08-16, 01:32:01,VALID,916.385,VALID,0,VALID,100,VALID,0.0169808,VALID,19.4439,VALID,314,VALID,0.311472,
2003-08-16, 01:33:01,VALID,916.396,VALID,0,VALID,100,VALID,0,VALID,19.4565,VALID,346,VALID,0.233141,
2003-08-16, 01:34:01,VALID,916.389,VALID,0,VALID,100,VALID,0,VALID,19.4828,VALID,346,VALID,0.00520833,
2003-08-16, 01:35:01,VALID,916.395,VALID,0,VALID,100,VALID,0,VALID,19.4955,VALID,351,VALID,0.189145,
2003-08-16, 01:36:01,VALID,916.398,VALID,0,VALID,100,VALID,0.0169808,VALID,19.4888,VALID,1,VALID,0.521382,
2003-08-16, 01:37:00,VALID,916.401,VALID,0,VALID,100,VALID,0,VALID,19.4953,VALID,3,VALID,0.378906,
2003-08-16, 01:38:00,VALID,916.409,VALID,0,VALID,100,VALID,0.0169808,VALID,19.4819,VALID,3,VALID,0.212838,
2003-08-16, 01:39:00,VALID,916.402,VALID,0,VALID,100,VALID,0,VALID,19.4985,VALID,3,VALID,0.275506,
2003-08-16, 01:40:00,VALID,916.398,VALID,0,VALID,100,VALID,0,VALID,19.4985,VALID,3,VALID,0.152449,
2003-08-16, 01:41:00,VALID,916.403,VALID,0,VALID,100,VALID,0.0169808,VALID,19.4988,VALID,3,VALID,0.0532853,
2003-08-16, 01:42:00,VALID,916.384,VALID,0,VALID,100,VALID,0.0169808,VALID,19.5082,VALID,3,VALID,0.257366,
2003-08-16, 01:43:00,VALID,916.384,VALID,0,VALID,100,VALID,0,VALID,19.5015,VALID,3,VALID,0.0127467,
2003-08-16, 01:44:00,VALID,916.369,VALID,0,VALID,100,VALID,0,VALID,19.5243,VALID,3,VALID,0.181696,
2003-08-16, 01:45:00,VALID,916.353,VALID,0,VALID,100,VALID,0.0169808,VALID,19.5211,VALID,3,VALID,0.0865234,
2003-08-16, 01:46:00,VALID,916.356,VALID,0,VALID,100,VALID,0.0849042,VALID,19.5306,VALID,3,VALID,0.0800253,
2003-08-16, 01:47:00,VALID,916.343,VALID,0,VALID,100,VALID,0.0339617,VALID,19.5467,VALID,3,VALID,0,
2003-08-16, 01:48:00,VALID,916.331,VALID,0,VALID,100,VALID,0.0169808,VALID,19.5566,VALID,3,VALID,0,
2003-08-16, 01:49:00,VALID,916.321,VALID,0,VALID,100,VALID,0,VALID,19.5402,VALID,3,VALID,0,
2003-08-16, 01:50:00,VALID,916.317,VALID,0,VALID,100,VALID,0.0169808,VALID,19.5241,VALID,3,VALID,0,
2003-08-16, 01:51:00,VALID,916.307,VALID,0,VALID,100,VALID,0.0339617,VALID,19.5171,VALID,3,VALID,0,
2003-08-16, 01:52:00,VALID,916.312,VALID,0,VALID,100,VALID,0.0509425,VALID,19.5077,VALID,3,VALID,0,
2003-08-16, 01:53:00,VALID,916.298,VALID,0,VALID,100,VALID,-0.0509425,VALID,19.5064,VALID,3,VALID,0,
2003-08-16, 01:54:00,VALID,916.288,VALID,0,VALID,100,VALID,-0.0339617,VALID,19.496,VALID,3,VALID,0,
2003-08-16, 01:55:00,VALID,916.261,VALID,0,VALID,100,VALID,-0.0509425,VALID,19.4801,VALID,3,VALID,0,
2003-08-16, 01:56:00,VALID,916.244,VALID,0,VALID,100,VALID,-0.0509425,VALID,19.4769,VALID,3,VALID,0.11616,
2003-08-16, 01:57:00,VALID,916.236,VALID,0,VALID,100,VALID,-0.0509425,VALID,19.4669,VALID,3,VALID,0.124107,
2003-08-16, 01:58:00,VALID,916.213,VALID,0,VALID,100,VALID,-0.0679233,VALID,19.4607,VALID,3,VALID,0.0333615,
2003-08-16, 01:59:00,VALID,916.196,VALID,0,VALID,100,VALID,-0.0509425,VALID,19.4573,VALID,3,VALID,0.10617,
2003-08-16, 02:00:00,VALID,916.171,VALID,0,VALID,100,VALID,-0.0849042,VALID,19.4607,VALID,3,VALID,0,
2003-08-16, 02:01:00,VALID,916.161,VALID,0,VALID,100,VALID,-0.101885,VALID,19.4642,VALID,4,VALID,0.148828,
2003-08-16, 02:02:00,VALID,916.146,VALID,0,VALID,100,VALID,-0.0679233,VALID,19.4642,VALID,10,VALID,0.580329,
2003-08-16, 02:03:00,VALID,916.15,VALID,0,VALID,100,VALID,-0.0679233,VALID,19.4836,VALID,9,VALID,0.813301,
2003-08-16, 02:04:00,VALID,916.137,VALID,0,VALID,100,VALID,-0.0849042,VALID,19.4744,VALID,23,VALID,0.941201,
2003-08-16, 02:05:00,VALID,916.135,VALID,0,VALID,100,VALID,-0.0679233,VALID,19.4704,VALID,17,VALID,1.10216,
2003-08-16, 02:06:00,VALID,916.125,VALID,0,VALID,100,VALID,-0.0849042,VALID,19.4443,VALID,14,VALID,1.19591,
2003-08-16, 02:07:00,VALID,916.121,VALID,0,VALID,100,VALID,-0.0849042,VALID,19.4287,VALID,10,VALID,1.12563,
2003-08-16, 02:08:00,VALID,916.102,VALID,0,VALID,100,VALID,0.0509425,VALID,19.424,VALID,10,VALID,1.3049,
2003-08-16, 02:09:00,VALID,916.086,VALID,0,VALID,100,VALID,0.0509425,VALID,19.4076,VALID,10,VALID,1.19375,
2003-08-16, 02:10:00,VALID,916.085,VALID,0,VALID,100,VALID,0.0339617,VALID,19.4016,VALID,8,VALID,1.01848,
2003-08-16, 02:11:00,VALID,916.067,VALID,0,VALID,100,VALID,0.0169808,VALID,19.4016,VALID,9,VALID,0.877323,
2003-08-16, 02:12:00,VALID,916.073,VALID,0,VALID,100,VALID,0.0169808,VALID,19.3979,VALID,11,VALID,0.958404,
2003-08-16, 02:13:00,VALID,916.071,VALID,0,VALID,100,VALID,0,VALID,19.4016,VALID,12,VALID,0.824449,
2003-08-16, 02:14:00,VALID,916.057,VALID,0,VALID,100,VALID,0.0169808,VALID,19.3912,VALID,18,VALID,0.951522,
2003-08-16, 02:15:00,VALID,916.058,VALID,0,VALID,100,VALID,0,VALID,19.3917,VALID,12,VALID,1.0085,
2003-08-16, 02:16:00,VALID,916.049,VALID,0,VALID,100,VALID,0,VALID,19.3785,VALID,12,VALID,0.655405,
2003-08-16, 02:17:00,VALID,916.035,VALID,0,VALID,100,VALID,0.0509425,VALID,19.4014,VALID,4,VALID,0.748397,
2003-08-16, 02:18:00,VALID,916.02,VALID,0,VALID,100,VALID,0,VALID,19.4145,VALID,359,VALID,0.638672,
2003-08-16, 02:19:00,VALID,915.996,VALID,0,VALID,100,VALID,0.0169808,VALID,19.4113,VALID,6,VALID,0.721484,
2003-08-16, 02:20:00,VALID,915.965,VALID,0,VALID,100,VALID,0,VALID,19.4081,VALID,341,VALID,0.620888,
2003-08-16, 02:21:00,VALID,915.941,VALID,0,VALID,100,VALID,0.0339617,VALID,19.3885,VALID,343,VALID,0.279605,
2003-08-16, 02:22:00,VALID,915.931,VALID,0,VALID,100,VALID,0,VALID,19.3917,VALID,350,VALID,0.0676448,
2003-08-16, 02:23:00,VALID,915.893,VALID,0,VALID,100,VALID,-0.0679233,VALID,19.4066,VALID,3,VALID,0.250391,
2003-08-16, 02:24:00,VALID,915.868,VALID,0,VALID,100,VALID,-0.0849042,VALID,19.3802,VALID,13,VALID,0.424805,
2003-08-16, 02:25:00,VALID,915.845,VALID,0,VALID,100,VALID,-0.101885,VALID,19.3999,VALID,13,VALID,0.223273,
2003-08-16, 02:26:00,VALID,915.832,VALID,0,VALID,100,VALID,-0.101885,VALID,19.3996,VALID,14,VALID,0.380345,
2003-08-16, 02:28:00,INVALID,0,VALID,0,VALID,100,VALID,0,VALID,19.4109,VALID,18,VALID,0.406006,
2003-08-16, 02:29:00,VALID,915.791,VALID,0,VALID,100,VALID,0,VALID,19.3952,VALID,16,VALID,0.362305,
2003-08-16, 02:30:00,VALID,915.777,VALID,0,VALID,100,VALID,0.0169808,VALID,19.389,VALID,15,VALID,0.0444712,
2003-08-16, 02:31:00,VALID,915.76,VALID,0,VALID,100,VALID,0.0169808,VALID,19.3753,VALID,15,VALID,0.0148437,
2003-08-16, 02:32:00,VALID,915.759,VALID,0,VALID,100,VALID,0,VALID,19.3795,VALID,15,VALID,0.134766,
2003-08-16, 02:33:00,VALID,915.74,VALID,0,VALID,100,VALID,0,VALID,19.3693,VALID,15,VALID,0.120888,
2003-08-16, 02:34:00,VALID,915.743,VALID,0,VALID,100,VALID,0.0169808,VALID,19.3661,VALID,15,VALID,0,
2003-08-16, 02:35:00,VALID,915.746,VALID,0,VALID,100,VALID,0.0509425,VALID,19.3624,VALID,15,VALID,0,
2003-08-16, 02:37:00,INVALID,0,VALID,0,VALID,100,VALID,-0.101885,VALID,19.3501,VALID,15,VALID,0,
2003-08-16, 02:38:00,VALID,915.757,VALID,0,VALID,100,VALID,-0.101885,VALID,19.3581,VALID,15,VALID,0.152539,
2003-08-16, 02:39:00,VALID,915.768,VALID,0,VALID,100,VALID,-0.101885,VALID,19.3514,VALID,41,VALID,0.216947,
2003-08-16, 02:41:00,INVALID,0,VALID,0,VALID,100,VALID,0.020377,VALID,19.3376,VALID,67,VALID,0.0380859,
2003-08-16, 02:42:00,VALID,915.767,VALID,0,VALID,100,VALID,0,VALID,19.3137,VALID,67,VALID,0,
2003-08-16, 02:43:00,VALID,915.776,VALID,0,VALID,100,VALID,0.0169808,VALID,19.3239,VALID,67,VALID,0.000600962,
2003-08-16, 02:45:00,INVALID,0,VALID,0,VALID,100,VALID,-0.020377,VALID,19.3257,VALID,67,VALID,0,
2003-08-16, 02:46:00,VALID,915.791,VALID,0,VALID,100,VALID,0,VALID,19.3174,VALID,67,VALID,0,
2003-08-16, 02:47:00,VALID,915.789,VALID,0,VALID,100,VALID,0,VALID,19.3174,VALID,67,VALID,0,
2003-08-16, 02:49:00,INVALID,0,VALID,0,VALID,100,VALID,0.081508,VALID,19.3203,VALID,67,VALID,0,
2003-08-16, 02:50:00,VALID,915.793,VALID,0,VALID,100,VALID,0.0849042,VALID,19.3328,VALID,67,VALID,0,
2003-08-16, 02:51:00,VALID,915.797,VALID,0,VALID,100,VALID,0.101885,VALID,19.3199,VALID,67,VALID,0,
2003-08-16, 03:23:00,INVALID,0,VALID,0,VALID,100,VALID,0,VALID,19.3512,VALID,163,VALID,0,
2003-08-16, 03:24:00,VALID,915.909,VALID,0,VALID,100,VALID,0,VALID,19.3475,VALID,162,VALID,0.0445312,
2003-08-16, 03:25:00,VALID,915.892,VALID,0,VALID,100,VALID,0,VALID,19.3701,VALID,101,VALID,0.29516,
2003-08-16, 03:57:00,INVALID,0,VALID,0,VALID,100,VALID,-0.101885,VALID,19.3934,VALID,15,VALID,0.461426,
2003-08-16, 03:58:00,VALID,915.707,VALID,0,VALID,100,VALID,-0.0679233,VALID,19.4068,VALID,15,VALID,0.580859,
2003-08-16, 03:59:00,VALID,915.688,VALID,0,VALID,100,VALID,-0.0849042,VALID,19.4006,VALID,15,VALID,0.274771,
2003-08-16, 04:01:00,INVALID,0,VALID,0,VALID,100,VALID,0,VALID,19.4037,VALID,16,VALID,0.450928,
2003-08-16, 04:02:00,VALID,915.664,VALID,0,VALID,100,VALID,0,VALID,19.3927,VALID,358,VALID,0.426562,
2003-08-16, 04:03:00,VALID,915.684,VALID,0,VALID,100,VALID,-0.0169808,VALID,19.4026,VALID,352,VALID,0.524639,
2003-08-16, 07:37:00,INVALID,0,VALID,0,VALID,100,VALID,9.16965,VALID,17.1423,VALID,247,VALID,1.06763,
2003-08-16, 07:38:00,VALID,918.653,VALID,0,VALID,100,VALID,9.4753,VALID,17.178,VALID,355,VALID,1.1002,
2003-08-16, 07:39:00,VALID,918.637,VALID,0,VALID,100,VALID,9.22059,VALID,17.2004,VALID,316,VALID,0.658918,
2003-08-16, 07:42:00,INVALID,0,VALID,0,VALID,100,VALID,9.27153,VALID,17.2583,VALID,115,VALID,0.324013,
2003-08-16, 07:43:00,VALID,918.696,VALID,0,VALID,100,VALID,9.52625,VALID,17.2611,VALID,204,VALID,1.32854,
2003-08-16, 07:46:00,INVALID,0,VALID,0,VALID,100,VALID,9.53643,VALID,17.3123,VALID,290,VALID,0.550781,
2003-08-16, 07:47:00,VALID,918.735,VALID,0,VALID,100,VALID,10.1715,VALID,17.3385,VALID,2,VALID,1.50625,
2003-08-16, 07:51:00,INVALID,0,VALID,0,VALID,100,VALID,11.7507,VALID,17.4184,VALID,308,VALID,1.27344,
2003-08-16, 07:52:00,VALID,918.706,VALID,0,VALID,100,VALID,12.1243,VALID,17.436,VALID,316,VALID,1.15707,
2003-08-16, 07:56:00,INVALID,0,VALID,0,VALID,100,VALID,11.7372,VALID,17.4815,VALID,28,VALID,0.344482,
2003-08-16, 07:57:00,VALID,918.748,VALID,0,VALID,100,VALID,13.5167,VALID,17.4845,VALID,104,VALID,1.07227,
2003-08-16, 08:01:00,INVALID,0,VALID,0,VALID,100,VALID,14.6205,VALID,17.5462,VALID,159,VALID,0.191106,
2003-08-16, 08:02:00,VALID,918.783,VALID,0,VALID,100,VALID,15.3507,VALID,17.5592,VALID,45,VALID,0.601162,
2003-08-16, 08:06:00,INVALID,0,VALID,0,VALID,100,VALID,16.7091,VALID,17.6123,VALID,306,VALID,0.66626,
2003-08-16, 08:13:00,INVALID,0,VALID,0,VALID,100,VALID,18.1016,VALID,17.6941,VALID,305,VALID,1.31209,
2003-08-16, 11:20:00,INVALID,0,VALID,0,VALID,90.1364,VALID,477.331,VALID,21.0574,VALID,31,VALID,0.955078,
2003-08-16, 11:21:00,VALID,918.977,VALID,0,VALID,90.4174,VALID,439.939,VALID,21.1519,VALID,29,VALID,1.60609,
2003-08-16, 11:22:00,VALID,918.913,VALID,0,VALID,89.8033,VALID,412.023,VALID,21.2485,VALID,17,VALID,1.58203,
2003-08-16, 11:23:00,VALID,918.914,VALID,0,VALID,89.2425,VALID,408.797,VALID,21.3904,VALID,30,VALID,1.16178,
2003-08-16, 11:24:00,VALID,918.914,VALID,0,VALID,87.6733,VALID,415.895,VALID,21.5097,VALID,29,VALID,1.01454,
2003-08-16, 11:25:00,VALID,918.915,VALID,0,VALID,85.7799,VALID,429.19,VALID,21.6133,VALID,133,VALID,0.710938,
2003-08-16, 11:26:00,VALID,918.905,VALID,0,VALID,88.0078,VALID,436.968,VALID,21.6841,VALID,356,VALID,1.21113,
2003-08-16, 11:27:00,VALID,918.894,VALID,0,VALID,87.3529,VALID,439.973,VALID,21.7385,VALID,355,VALID,1.67314,
2003-08-16, 11:28:00,VALID,918.868,VALID,0,VALID,85.1606,VALID,439.243,VALID,21.7226,VALID,347,VALID,1.23438,
2003-08-16, 11:29:00,VALID,918.882,VALID,0,VALID,85.3768,VALID,441.077,VALID,21.7022,VALID,343,VALID,0.833676,
2003-08-16, 11:30:00,VALID,918.86,VALID,0,VALID,86.4577,VALID,458.635,VALID,21.7932,VALID,350,VALID,0.646998,
2003-08-16, 11:31:00,VALID,918.845,VALID,0,VALID,83.8165,VALID,485.261,VALID,21.8322,VALID,172,VALID,1.3928,
2003-08-16, 11:32:00,VALID,918.845,VALID,0,VALID,86.0431,VALID,486.688,VALID,21.8731,VALID,8,VALID,0.88598,
2003-08-16, 11:33:00,VALID,918.848,VALID,0,VALID,85.2344,VALID,474.41,VALID,21.9768,VALID,155,VALID,0.466518,
2003-08-16, 11:34:00,VALID,918.857,VALID,0,VALID,83.505,VALID,489.371,VALID,22.0091,VALID,108,VALID,0.805715,
2003-08-16, 11:35:00,VALID,918.816,VALID,0,VALID,84.5579,VALID,511.072,VALID,22.0573,VALID,65,VALID,0.40435,
2003-08-16, 11:36:00,VALID,918.833,VALID,0,VALID,85.2051,VALID,549.737,VALID,22.1836,VALID,14,VALID,1.23109,
2003-08-16, 11:37:00,VALID,918.805,VALID,0,VALID,83.5978,VALID,576.109,VALID,22.3123,VALID,355,VALID,1.17293,
2003-08-16, 11:38:00,VALID,918.799,VALID,0,VALID,80.6668,VALID,580.965,VALID,22.2415,VALID,271,VALID,0.73418,
2003-08-16, 11:39:00,VALID,918.795,VALID,0,VALID,83.7898,VALID,572.288,VALID,22.245,VALID,327,VALID,0.707442,
2003-08-16, 11:40:00,VALID,918.783,VALID,0,VALID,83.0727,VALID,573.714,VALID,22.3968,VALID,17,VALID,0.338108,
2003-08-16, 11:41:00,VALID,918.776,VALID,0,VALID,83.1757,VALID,574.394,VALID,22.5931,VALID,21,VALID,1.13619,
2003-08-16, 11:42:00,VALID,918.769,VALID,0,VALID,83.0002,VALID,554.917,VALID,22.69,VALID,1,VALID,1.36381,
2003-08-16, 11:43:00,VALID,918.728,VALID,0,VALID,81.1919,VALID,565.122,VALID,22.6862,VALID,356,VALID,0.583767,
2003-08-16, 11:44:00,VALID,918.738,VALID,0,VALID,80.2904,VALID,563.458,VALID,22.7665,VALID,45,VALID,0.494234,
2003-08-16, 11:45:00,VALID,918.728,VALID,0,VALID,81.8239,VALID,554.696,VALID,22.7535,VALID,334,VALID,1.04054,
2003-08-16, 11:46:00,VALID,918.714,VALID,0,VALID,82.8387,VALID,570.148,VALID,22.7309,VALID,353,VALID,1.9118,
2003-08-16, 11:47:00,VALID,918.696,VALID,0,VALID,82.2537,VALID,572.101,VALID,22.6628,VALID,323,VALID,1.13178,
2003-08-16, 11:48:00,VALID,918.704,VALID,0,VALID,80.12,VALID,552.794,VALID,22.7271,VALID,227,VALID,0.871875,
2003-08-16, 11:49:00,VALID,918.674,VALID,0.2,VALID,79.4422,VALID,549.551,VALID,22.8728,VALID,241,VALID,0.408717,
2003-08-16, 11:50:00,VALID,918.635,VALID,0,VALID,79.4715,VALID,527.289,VALID,22.9994,VALID,325,VALID,0.541941,
2003-08-16, 11:51:00,VALID,918.626,VALID,0,VALID,78.5127,VALID,502.157,VALID,22.9715,VALID,1,VALID,1.52048,
2003-08-16, 11:52:00,VALID,918.614,VALID,0,VALID,78.3944,VALID,489.269,VALID,22.6868,VALID,344,VALID,0.959852,
2003-08-16, 11:53:00,VALID,918.606,VALID,0,VALID,80.4353,VALID,471.456,VALID,22.7409,VALID,77,VALID,0.474107,
2003-08-16, 11:54:00,VALID,918.602,VALID,0,VALID,81.5836,VALID,453.235,VALID,22.9133,VALID,273,VALID,0.899609,
2003-08-16, 11:55:01,VALID,918.604,VALID,0,VALID,76.8723,VALID,436.985,VALID,22.8058,VALID,263,VALID,0.913862,